Weather History for KPOF - March, 2014

Change the Weather History Date:

Saturday, March 1, 2014

  Actual Average Record
Temperature  
Mean Temperature 48 °F -  
Max Temperature 55 °F 54 °F 76 °F (1972)
Min Temperature 41 °F 31 °F 7 °F (1989)
Degree Days  
Heating Degree Days 17    
Moisture  
Dew Point 35 °F    
Average Humidity 62    
Maximum Humidity 76    
Minimum Humidity 47    
Precipitation  
Precipitation 0.00 in - - ()
Sea Level Pressure  
Sea Level Pressure 30.10 in    
Wind  
Wind Speed 3 mph (ENE)    
Max Wind Speed 15 mph    
Max Gust Speed -    
Visibility 10 miles    
Events      
Averages and records for this station are not official NWS values.
T = Trace of Precipitation, MM = Missing Value Source: NWS Daily Summary

Daily Weather History Graph

Daily Weather History Graph

Search for Another Location

Airport or City:

Trip Planner

Search our weather history database for the weather conditions in past years. The results will help you decide how hot, cold, wet, or windy it might be!

Date:

Astronomy

Mar. 01, 2014 Rise Set
Actual Time 6:32 AM CST 5:55 PM CST
Civil Twilight 6:06 AM CST 6:21 PM CST
Nautical Twilight 5:36 AM CST 6:51 PM CST
Astronomical Twilight 5:06 AM CST 7:21 PM CST
Moon 6:27 AM CST (3/1) 6:40 PM CST (3/1)
Length of Visible Light 12h 15m
Length of Day
11h 23m
New Moon, 0% of the Moon is Illuminated
Mar 1
New Moon
Mar 8
First Quarter
Mar 16
Full
Mar 23
Last Quarter
Mar 30
New

Hourly Weather History & Observations

Time (CST) Temp. Windchill Dew Point Humidity Pressure Visibility Wind Dir Wind Speed Gust Speed Precip Events Conditions
12:53 AM 43.0 °F - 30.0 °F 60% 30.06 in 10.0 mi Calm Calm - N/A   Overcast
1:53 AM 42.1 °F - 33.1 °F 70% 30.06 in 10.0 mi Calm Calm - N/A   Overcast
2:53 AM 42.1 °F - 33.1 °F 70% 30.06 in 10.0 mi Calm Calm - N/A   Overcast
3:53 AM 42.1 °F - 33.1 °F 70% 30.06 in 10.0 mi Calm Calm - N/A   Overcast
4:53 AM 41.0 °F - 34.0 °F 76% 30.09 in 10.0 mi Calm Calm - N/A   Overcast
5:53 AM 41.0 °F - 33.1 °F 73% 30.10 in 10.0 mi Calm Calm - N/A   Overcast
6:53 AM 41.0 °F 39.0 °F 34.0 °F 76% 30.11 in 10.0 mi NE 3.5 mph - N/A   Overcast
7:53 AM 43.0 °F - 34.0 °F 71% 30.13 in 10.0 mi Calm Calm - N/A   Overcast
8:53 AM 45.0 °F 42.6 °F 35.1 °F 68% 30.14 in 10.0 mi ENE 4.6 mph - N/A   Overcast
9:53 AM 46.9 °F - 36.0 °F 66% 30.14 in 10.0 mi East 3.5 mph - N/A   Overcast
10:53 AM 48.9 °F - 35.1 °F 59% 30.16 in 10.0 mi Calm Calm - N/A   Overcast
11:53 AM 51.1 °F - 35.1 °F 54% 30.15 in 10.0 mi NNE 4.6 mph - N/A   Overcast
12:53 PM 54.0 °F - 36.0 °F 51% 30.12 in 10.0 mi Variable 5.8 mph - N/A   Partly Cloudy
1:53 PM 55.9 °F - 36.0 °F 47% 30.09 in 10.0 mi SE 6.9 mph - N/A   Clear
2:53 PM 55.9 °F - 37.0 °F 49% 30.09 in 10.0 mi ESE 5.8 mph - N/A   Partly Cloudy
3:53 PM 54.0 °F - 36.0 °F 51% 30.09 in 10.0 mi ESE 6.9 mph - N/A   Overcast
4:53 PM 53.1 °F - 37.0 °F 55% 30.08 in 10.0 mi East 6.9 mph - N/A   Overcast
5:46 PM 52.0 °F - 37.0 °F 57% 30.07 in 10.0 mi East 5.8 mph - N/A   Overcast
5:53 PM 52.0 °F - 37.0 °F 57% 30.09 in 10.0 mi East 4.6 mph - N/A   Overcast
6:53 PM 51.1 °F - 37.9 °F 61% 30.09 in 10.0 mi ENE 4.6 mph - N/A   Overcast
7:09 PM 51.1 °F - 37.9 °F 61% 30.09 in 10.0 mi East 4.6 mph - N/A   Overcast
7:31 PM 51.1 °F - 37.9 °F 61% 30.10 in 10.0 mi ENE 3.5 mph - N/A   Overcast
7:53 PM 51.1 °F - 39.0 °F 63% 30.10 in 10.0 mi NE 4.6 mph - N/A   Overcast
8:11 PM 51.1 °F - 39.0 °F 63% 30.09 in 10.0 mi NE 4.6 mph - N/A   Overcast
8:53 PM 50.0 °F - 39.0 °F 66% 30.08 in 10.0 mi ENE 6.9 mph - N/A   Overcast
9:53 PM 51.1 °F - 37.9 °F 61% 30.09 in 10.0 mi NE 6.9 mph - N/A   Overcast
10:53 PM 44.1 °F 37.1 °F 30.9 °F 60% 30.10 in 8.0 mi NNE 15.0 mph - N/A   Overcast
11:53 PM 42.1 °F 35.2 °F 28.9 °F 60% 30.10 in 7.0 mi NNE 12.7 mph - N/A   Overcast